Change the Weather History Date:

Saturday, June 7, 2014

  Actual Average Record
Temperature  
Mean Temperature 60 °F -  
Max Temperature 68 °F 67 °F 86 °F (2003)
Min Temperature 53 °F 51 °F 41 °F (1949)
Degree Days  
Heating Degree Days 6    
Growing Degree Days 10 (Base 50)    
Moisture  
Dew Point 51 °F    
Average Humidity 77    
Maximum Humidity 89    
Minimum Humidity 59    
Precipitation  
Precipitation 0.00 in - - ()
Sea Level Pressure  
Sea Level Pressure 30.18 in    
Wind  
Wind Speed 6 mph (North)    
Max Wind Speed 9 mph    
Max Gust Speed -    
Visibility 10 miles    
Events      
Averages and records for this station are not official NWS values.
T = Trace of Precipitation, MM = Missing Value Source: NWS Daily Summary

Daily Weather History Graph

Daily Weather History Graph

Search for Another Location

Airport or City:

Trip Planner

Search our weather history database for the weather conditions in past years. The results will help you decide how hot, cold, wet, or windy it might be!

Date:

Astronomy

Jun. 07, 2014 Rise Set
Actual Time 5:11 AM PDT 9:05 PM PDT
Civil Twilight 4:30 AM PDT 9:45 PM PDT
Nautical Twilight 3:35 AM PDT 10:41 PM PDT
Astronomical Twilight 2:09 AM PDT 12:08 AM PDT
Moon 3:05 PM PDT (6/7) 2:00 AM PDT (6/7)
Length of Visible Light 17h 15m
Length of Day
15h 54m
Waxing Gibbous, 69% of the Moon is Illuminated
Jun 7
Waxing Gibbous
Jun 12
Full
Jun 19
Last Quarter
Jun 27
New
Jul 5
First Quarter

Hourly Weather History & Observations

Time (PDT) Temp. Dew Point Humidity Pressure Visibility Wind Dir Wind Speed Gust Speed Precip Events Conditions
12:53 AM 54.0 °F 48.9 °F 83% 30.13 in 10.0 mi North 8.1 mph - N/A   Overcast
1:49 AM 53.6 °F 48.2 °F 82% 30.14 in 10.0 mi North 8.1 mph - N/A   Mostly Cloudy
1:53 AM 54.0 °F 48.9 °F 83% 30.14 in 10.0 mi North 9.2 mph - N/A   Mostly Cloudy
2:53 AM 53.1 °F 50.0 °F 89% 30.14 in 10.0 mi North 9.2 mph - N/A   Overcast
3:53 AM 53.1 °F 50.0 °F 89% 30.14 in 10.0 mi Variable 5.8 mph - N/A   Overcast
5:53 AM 53.6 °F 50.0 °F 88% 30.17 in 10.0 mi North 5.8 mph - N/A   Overcast
6:10 AM 53.1 °F 50.0 °F 89% 30.18 in 10.0 mi North 5.8 mph - N/A   Overcast
6:53 AM 53.1 °F 50.0 °F 89% 30.18 in 10.0 mi North 5.8 mph - N/A   Overcast
7:53 AM 54.0 °F 50.0 °F 86% 30.19 in 10.0 mi ENE 3.5 mph - N/A   Overcast
8:42 AM 55.0 °F 50.0 °F 83% 30.19 in 10.0 mi Variable 3.5 mph - N/A   Mostly Cloudy
8:53 AM 55.9 °F 50.0 °F 80% 30.20 in 10.0 mi Calm Calm - N/A   Overcast
9:53 AM 59.0 °F 51.1 °F 75% 30.21 in 10.0 mi Calm Calm - N/A   Overcast
10:53 AM 60.1 °F 51.1 °F 72% 30.21 in 10.0 mi Variable 3.5 mph - N/A   Mostly Cloudy
11:53 AM 62.1 °F 52.0 °F 70% 30.20 in 10.0 mi NW 5.8 mph - N/A   Clear
12:53 PM 64.0 °F 52.0 °F 65% 30.20 in 10.0 mi West 8.1 mph - N/A   Clear
1:53 PM 66.0 °F 52.0 °F 60% 30.19 in 10.0 mi WNW 5.8 mph - N/A   Clear
2:53 PM 66.9 °F 52.0 °F 59% 30.19 in 10.0 mi NW 6.9 mph - N/A   Clear
3:53 PM 66.0 °F 53.1 °F 63% 30.19 in 10.0 mi NNW 5.8 mph - N/A   Clear
4:53 PM 66.9 °F 53.1 °F 61% 30.18 in 10.0 mi North 5.8 mph - N/A   Clear
5:53 PM 66.0 °F 53.1 °F 63% 30.18 in 10.0 mi North 6.9 mph - N/A   Clear
6:53 PM 63.0 °F 53.1 °F 70% 30.18 in 10.0 mi North 6.9 mph - N/A   Clear
7:53 PM 61.0 °F 52.0 °F 72% 30.18 in 10.0 mi North 8.1 mph - N/A   Clear
8:53 PM 59.0 °F 52.0 °F 78% 30.18 in 10.0 mi Variable 4.6 mph - N/A   Clear
9:53 PM 57.0 °F 53.1 °F 87% 30.19 in 10.0 mi NNE 4.6 mph - N/A   Clear
10:53 PM 57.0 °F 52.0 °F 83% 30.19 in 10.0 mi NNE 8.1 mph - N/A   Clear
11:53 PM 55.9 °F 52.0 °F 87% 30.20 in 10.0 mi NNE 6.9 mph - N/A   Clear